When you browse on this site, cookies collect data to enhance your experience and personalize the content and advertising you see.
Visit our Privacy Policy to learn more. By continuing to use the site, you agree to this use of cookies and data.
  • En España
  • Lista de países
  • Para 7 días
  • Temperatura del agua
  • El tiempo en el mapa
  • Informadores
  • user-avatar
    Iniciar sesión

    Tiempo cada hora Kostanaj

    Hoy, 2 Junio, Martes

    Tiempo Temperatura Precipitaciones Viento Presión Humedad
    00:00 +18°C° 0 mm 3 mps 744 mmHg 66%
    01:00 +17°C° 0 mm 3 mps 744 mmHg 71%
    02:00 +17°C° 0 mm 3 mps 744 mmHg 74%
    03:00 +16°C° 0 mm 3 mps 744 mmHg 77%
    04:00 +14°C° 0 mm 3 mps 745 mmHg 81%
    05:00 +17°C° 0 mm 3 mps 745 mmHg 76%
    06:00 +18°C° 0 mm 3 mps 745 mmHg 71%
    07:00 +19°C° 0 mm 3 mps 746 mmHg 66%
    08:00 +20°C° 0 mm 3 mps 746 mmHg 62%
    09:00 +21°C° 0 mm 3 mps 746 mmHg 57%
    10:00 +22°C° 0 mm 4 mps 747 mmHg 53%
    11:00 +22°C° 0 mm 4 mps 747 mmHg 52%
    12:00 +23°C° 0 mm 4 mps 747 mmHg 51%
    13:00 +23°C° 0 mm 4 mps 747 mmHg 50%
    14:00 +22°C° 0 mm 4 mps 747 mmHg 52%
    15:00 +22°C° 0 mm 5 mps 747 mmHg 54%
    16:00 +22°C° 0 mm 5 mps 747 mmHg 56%
    17:00 +20°C° 0 mm 5 mps 748 mmHg 61%
    18:00 +19°C° 0 mm 4 mps 748 mmHg 65%
    19:00 +18°C° 0 mm 4 mps 748 mmHg 69%
    20:00 +17°C° 0 mm 4 mps 748 mmHg 72%
    21:00 +15°C° 0 mm 4 mps 749 mmHg 75%
    22:00 +13°C° 0 mm 4 mps 749 mmHg 78%
    23:00 +13°C° 0 mm 4 mps 749 mmHg 78%

    Mañana, 3 Junio, Miércoles

    Tiempo Temperatura Precipitaciones Viento Presión Humedad
    00:00 +12°C° 0 mm 4 mps 749 mmHg 79%
    01:00 +12°C° 0 mm 3 mps 748 mmHg 79%
    02:00 +11°C° 0 mm 3 mps 749 mmHg 81%
    03:00 +11°C° 0 mm 3 mps 749 mmHg 83%
    04:00 +12°C° 0 mm 2 mps 749 mmHg 85%
    05:00 +12°C° 0 mm 2 mps 749 mmHg 82%
    06:00 +13°C° 0 mm 2 mps 749 mmHg 78%
    07:00 +14°C° 0 mm 2 mps 749 mmHg 75%
    08:00 +15°C° 0 mm 2 mps 749 mmHg 69%
    09:00 +16°C° 0 mm 2 mps 749 mmHg 62%
    10:00 +17°C° 0 mm 2 mps 749 mmHg 56%
    11:00 +17°C° 0 mm 3 mps 749 mmHg 58%
    12:00 +17°C° 0 mm 3 mps 748 mmHg 59%
    13:00 +18°C° 0 mm 3 mps 748 mmHg 60%
    14:00 +17°C° 0 mm 4 mps 748 mmHg 62%
    15:00 +17°C° 0 mm 4 mps 748 mmHg 64%
    16:00 +15°C° 0 mm 5 mps 748 mmHg 66%
    17:00 +15°C° 0 mm 4 mps 748 mmHg 69%
    18:00 +16°C° 0 mm 3 mps 748 mmHg 71%
    19:00 +14°C° 0 mm 3 mps 748 mmHg 73%
    20:00 +13°C° 0 mm 3 mps 748 mmHg 77%
    21:00 +12°C° 0 mm 3 mps 748 mmHg 82%
    22:00 +11°C° 0 mm 4 mps 748 mmHg 86%
    23:00 +11°C° 0 mm 3 mps 748 mmHg 86%

    Pasado mañana, 4 Junio, Jueves

    Tiempo Temperatura Precipitaciones Viento Presión Humedad
    00:00 +11°C° 0 mm 3 mps 748 mmHg 85%
    01:00 +10°C° 0 mm 3 mps 748 mmHg 85%
    02:00 +10°C° 0 mm 3 mps 748 mmHg 84%
    03:00 +10°C° 0 mm 3 mps 748 mmHg 83%
    04:00 +10°C° 0 mm 3 mps 749 mmHg 82%
    05:00 +11°C° 0 mm 3 mps 749 mmHg 75%
    06:00 +13°C° 0 mm 4 mps 749 mmHg 68%
    07:00 +14°C° 0 mm 5 mps 749 mmHg 61%
    08:00 +15°C° 0 mm 6 mps 749 mmHg 57%
    09:00 +16°C° 0 mm 6 mps 749 mmHg 53%
    10:00 +17°C° 0 mm 7 mps 750 mmHg 48%
    11:00 +17°C° 0 mm 7 mps 750 mmHg 47%
    12:00 +17°C° 0 mm 7 mps 750 mmHg 46%
    13:00 +18°C° 0 mm 7 mps 750 mmHg 44%
    14:00 +18°C° 0 mm 7 mps 750 mmHg 44%
    15:00 +17°C° 0 mm 7 mps 750 mmHg 44%
    16:00 +17°C° 0 mm 7 mps 751 mmHg 44%
    17:00 +16°C° 0 mm 6 mps 751 mmHg 47%
    18:00 +15°C° 0 mm 5 mps 751 mmHg 51%
    19:00 +14°C° 0 mm 4 mps 751 mmHg 54%
    20:00 +13°C° 0 mm 4 mps 752 mmHg 57%
    21:00 +11°C° 0 mm 4 mps 752 mmHg 60%
    22:00 +10°C° 0 mm 3 mps 753 mmHg 63%
    23:00 +10°C° 0 mm 3 mps 753 mmHg 65%

    5 Junio, Viernes

    Tiempo Temperatura Precipitaciones Viento Presión Humedad
    00:00 +9°C° 0 mm 3 mps 753 mmHg 67%
    01:00 +8°C° 0 mm 2 mps 752 mmHg 70%
    02:00 +8°C° 0 mm 2 mps 753 mmHg 71%
    03:00 +8°C° 0 mm 2 mps 753 mmHg 73%
    04:00 +8°C° 0 mm 2 mps 754 mmHg 74%
    05:00 +10°C° 0 mm 2 mps 754 mmHg 69%
    06:00 +11°C° 0 mm 3 mps 754 mmHg 64%
    07:00 +13°C° 0 mm 3 mps 755 mmHg 59%
    08:00 +14°C° 0 mm 3 mps 755 mmHg 53%
    09:00 +15°C° 0 mm 4 mps 755 mmHg 47%
    10:00 +18°C° 0 mm 4 mps 755 mmHg 42%
    11:00 +18°C° 0 mm 4 mps 754 mmHg 40%
    12:00 +19°C° 0 mm 4 mps 754 mmHg 37%
    13:00 +20°C° 0 mm 4 mps 754 mmHg 35%
    14:00 +20°C° 0 mm 4 mps 754 mmHg 36%
    15:00 +20°C° 0 mm 4 mps 754 mmHg 37%
    16:00 +20°C° 0 mm 4 mps 754 mmHg 37%
    17:00 +19°C° 0 mm 4 mps 754 mmHg 43%
    18:00 +18°C° 0 mm 3 mps 754 mmHg 48%
    19:00 +17°C° 0 mm 3 mps 754 mmHg 54%
    20:00 +16°C° 0 mm 2 mps 754 mmHg 56%
    21:00 +15°C° 0 mm 2 mps 754 mmHg 57%
    22:00 +14°C° 0 mm 2 mps 754 mmHg 59%
    23:00 +13°C° 0 mm 2 mps 754 mmHg 61%

    6 Junio, Sábado

    Tiempo Temperatura Precipitaciones Viento Presión Humedad
    00:00 +13°C° 0 mm 2 mps 754 mmHg 63%
    01:00 +12°C° 0 mm 2 mps 755 mmHg 64%
    02:00 +12°C° 0 mm 2 mps 755 mmHg 66%
    03:00 +12°C° 0 mm 2 mps 755 mmHg 67%
    04:00 +10°C° 0 mm 2 mps 755 mmHg 69%
    05:00 +13°C° 0 mm 2 mps 755 mmHg 64%
    06:00 +15°C° 0 mm 2 mps 755 mmHg 60%
    07:00 +17°C° 0 mm 2 mps 755 mmHg 55%
    08:00 +18°C° 0 mm 3 mps 755 mmHg 50%
    09:00 +19°C° 0 mm 3 mps 755 mmHg 45%
    10:00 +20°C° 0 mm 3 mps 755 mmHg 40%
    11:00 +21°C° 0 mm 3 mps 755 mmHg 39%
    12:00 +22°C° 0 mm 3 mps 754 mmHg 37%
    13:00 +22°C° 0 mm 3 mps 754 mmHg 35%
    14:00 +24°C° 0 mm 3 mps 754 mmHg 35%
    15:00 +24°C° 0 mm 3 mps 753 mmHg 35%
    16:00 +24°C° 0 mm 3 mps 753 mmHg 35%
    17:00 +22°C° 0 mm 3 mps 753 mmHg 40%
    18:00 +21°C° 0 mm 3 mps 753 mmHg 46%
    19:00 +20°C° 0 mm 3 mps 753 mmHg 52%
    20:00 +19°C° 0 mm 3 mps 753 mmHg 54%
    21:00 +17°C° 0 mm 3 mps 753 mmHg 56%
    22:00 +16°C° 0 mm 3 mps 753 mmHg 58%
    23:00 +16°C° 0 mm 3 mps 753 mmHg 62%

    7 Junio, Domingo

    Tiempo Temperatura Precipitaciones Viento Presión Humedad
    00:00 +16°C° 0 mm 3 mps 753 mmHg 67%
    01:00 +15°C° 0 mm 2 mps 753 mmHg 72%
    02:00 +15°C° 0 mm 2 mps 753 mmHg 73%
    03:00 +15°C° 0 mm 2 mps 753 mmHg 75%
    04:00 +15°C° 0 mm 2 mps 753 mmHg 77%
    05:00 +16°C° 0 mm 3 mps 754 mmHg 73%
    06:00 +18°C° 0 mm 3 mps 754 mmHg 68%
    07:00 +19°C° 0 mm 3 mps 754 mmHg 64%
    08:00 +21°C° 0 mm 3 mps 754 mmHg 58%
    09:00 +22°C° 0 mm 3 mps 754 mmHg 51%
    10:00 +23°C° 0 mm 4 mps 754 mmHg 45%
    11:00 +25°C° 0 mm 4 mps 754 mmHg 43%
    12:00 +26°C° 0 mm 4 mps 754 mmHg 40%
    13:00 +26°C° 0 mm 4 mps 754 mmHg 37%
    14:00 +26°C° 0 mm 4 mps 754 mmHg 38%
    15:00 +26°C° 0 mm 3 mps 754 mmHg 39%
    16:00 +26°C° 0 mm 3 mps 753 mmHg 40%
    17:00 +25°C° 0 mm 3 mps 753 mmHg 45%
    18:00 +23°C° 0 mm 4 mps 753 mmHg 50%
    19:00 +22°C° 0 mm 4 mps 753 mmHg 55%
    20:00 +20°C° 0 mm 4 mps 753 mmHg 57%
    21:00 +19°C° 0 mm 4 mps 753 mmHg 59%
    22:00 +18°C° 0 mm 4 mps 754 mmHg 62%
    23:00 +17°C° 0 mm 3 mps 754 mmHg 63%
    Mostrar más